Time,TemperatureF,DewpointF,PressureIn,WindDirection,WindDirectionDegrees,WindSpeedMPH,WindSpeedGustMPH,Humidity,HourlyPrecipIn,Conditions,Clouds,dailyrainin,SoftwareType,DateUTC
2013-03-08 00:00:00,30.2,27.7,29.94,NW,315,2.0,3.0,90,-99.99,,,-99.99,meteohub,2013-03-08 05:00:00,
2013-03-08 00:01:00,30.2,27.7,29.94,NW,315,1.0,3.0,90,-99.99,,,-99.99,meteohub,2013-03-08 05:01:00,
2013-03-08 00:04:00,30.2,27.7,29.94,NW,315,2.0,3.0,90,-99.99,,,-99.99,meteohub,2013-03-08 05:04:00,
2013-03-08 00:09:00,30.2,27.7,29.94,NW,315,2.0,3.0,90,-99.99,,,-99.99,meteohub,2013-03-08 05:09:00,
2013-03-08 00:14:00,30.2,27.7,29.94,NW,315,1.0,3.0,90,-99.99,,,-99.99,meteohub,2013-03-08 05:14:00,
2013-03-08 00:19:00,30.0,27.5,29.94,NW,315,1.0,5.0,90,-99.99,,,-99.99,meteohub,2013-03-08 05:19:00,
2013-03-08 00:24:00,30.0,27.5,29.94,NW,315,0.0,5.0,90,-99.99,,,-99.99,meteohub,2013-03-08 05:24:00,
2013-03-08 00:29:00,30.0,27.5,29.94,NW,315,1.0,5.0,90,-99.99,,,-99.99,meteohub,2013-03-08 05:29:00,
2013-03-08 00:35:00,30.0,27.5,29.94,NW,315,1.0,4.0,90,-99.99,,,-99.99,meteohub,2013-03-08 05:35:00,
2013-03-08 00:40:00,30.0,27.5,29.94,NW,315,0.0,4.0,90,-99.99,,,-99.99,meteohub,2013-03-08 05:40:00,
2013-03-08 00:45:00,30.0,27.5,29.94,NW,315,1.0,4.0,90,-99.99,,,-99.99,meteohub,2013-03-08 05:45:00,
2013-03-08 00:50:00,30.0,27.5,29.94,NW,315,1.0,3.0,90,-99.99,,,-99.99,meteohub,2013-03-08 05:50:00,
2013-03-08 00:55:00,30.0,27.5,29.94,NW,315,0.0,3.0,90,-99.99,,,-99.99,meteohub,2013-03-08 05:55:00,
2013-03-08 01:00:00,30.0,27.5,29.94,NW,315,0.0,3.0,90,-99.99,,,-99.99,meteohub,2013-03-08 06:00:00,
2013-03-08 01:05:00,30.0,27.7,29.91,NW,315,1.0,4.0,91,-99.99,,,-99.99,meteohub,2013-03-08 06:05:00,
2013-03-08 01:10:00,29.8,27.5,29.91,NW,315,1.0,4.0,91,-99.99,,,-99.99,meteohub,2013-03-08 06:10:00,
2013-03-08 01:15:00,29.8,27.5,29.91,NW,315,1.0,4.0,91,-99.99,,,-99.99,meteohub,2013-03-08 06:15:00,
2013-03-08 01:20:00,29.8,27.5,29.91,NW,315,0.0,2.0,91,-99.99,,,-99.99,meteohub,2013-03-08 06:20:00,
2013-03-08 01:25:00,29.8,27.5,29.91,NW,315,0.0,4.0,91,-99.99,,,-99.99,meteohub,2013-03-08 06:25:00,
2013-03-08 01:31:00,29.8,27.5,29.91,NW,315,0.0,4.0,91,-99.99,,,-99.99,meteohub,2013-03-08 06:31:00,
2013-03-08 01:36:00,29.8,27.5,29.88,NW,315,2.0,4.0,91,-99.99,,,-99.99,meteohub,2013-03-08 06:36:00,
2013-03-08 01:41:00,29.8,27.9,29.88,NW,315,2.0,3.0,92,-99.99,,,-99.99,meteohub,2013-03-08 06:41:00,
2013-03-08 01:46:00,29.8,27.9,29.88,NW,315,2.0,3.0,92,-99.99,,,-99.99,meteohub,2013-03-08 06:46:00,
2013-03-08 01:51:00,29.8,27.9,29.91,NW,315,2.0,3.0,92,-99.99,,,-99.99,meteohub,2013-03-08 06:51:00,
2013-03-08 01:56:00,29.8,27.9,29.91,NW,315,3.0,3.0,92,-99.99,,,-99.99,meteohub,2013-03-08 06:56:00,
2013-03-08 02:01:00,29.8,27.9,29.91,NW,315,1.0,3.0,92,-99.99,,,-99.99,meteohub,2013-03-08 07:01:00,
2013-03-08 02:06:00,29.8,27.9,29.88,NW,315,0.0,4.0,92,-99.99,,,-99.99,meteohub,2013-03-08 07:06:00,
2013-03-08 02:11:00,29.8,27.9,29.88,NW,315,0.0,4.0,92,-99.99,,,-99.99,meteohub,2013-03-08 07:11:00,
2013-03-08 02:16:00,29.7,27.7,29.88,NW,315,0.0,4.0,92,-99.99,,,-99.99,meteohub,2013-03-08 07:16:00,
2013-03-08 02:21:00,29.7,27.7,29.85,NW,315,1.0,4.0,92,-99.99,,,-99.99,meteohub,2013-03-08 07:21:00,
2013-03-08 02:26:00,29.7,27.7,29.85,NW,315,1.0,2.0,92,-99.99,,,-99.99,meteohub,2013-03-08 07:26:00,
2013-03-08 02:32:00,29.7,27.7,29.85,NW,315,1.0,3.0,92,-99.99,,,-99.99,meteohub,2013-03-08 07:32:00,
2013-03-08 02:37:00,29.7,27.7,29.88,NW,315,1.0,3.0,92,-99.99,,,-99.99,meteohub,2013-03-08 07:37:00,
2013-03-08 02:42:00,29.7,27.7,29.88,NW,315,1.0,3.0,92,-99.99,,,-99.99,meteohub,2013-03-08 07:42:00,
2013-03-08 02:47:00,29.7,27.9,29.88,NW,315,1.0,3.0,93,-99.99,,,-99.99,meteohub,2013-03-08 07:47:00,
2013-03-08 02:52:00,29.7,27.9,29.88,NW,315,1.0,4.0,93,-99.99,,,-99.99,meteohub,2013-03-08 07:52:00,
2013-03-08 02:57:00,29.5,27.7,29.88,NW,315,0.0,4.0,93,-99.99,,,-99.99,meteohub,2013-03-08 07:57:00,
2013-03-08 03:02:00,29.5,27.7,29.88,NW,315,2.0,4.0,93,-99.99,,,-99.99,meteohub,2013-03-08 08:02:00,
2013-03-08 03:07:00,29.5,27.7,29.88,NW,315,2.0,3.0,93,-99.99,,,-99.99,meteohub,2013-03-08 08:07:00,
2013-03-08 03:12:00,29.5,27.7,29.88,NW,315,4.0,4.0,93,-99.99,,,-99.99,meteohub,2013-03-08 08:12:00,
2013-03-08 03:17:00,29.5,27.7,29.88,NW,315,1.0,4.0,93,-99.99,,,-99.99,meteohub,2013-03-08 08:17:00,
2013-03-08 03:22:00,29.5,28.0,29.88,NW,315,0.0,4.0,94,-99.99,,,-99.99,meteohub,2013-03-08 08:22:00,
2013-03-08 03:27:00,29.5,28.0,29.88,NW,315,0.0,4.0,94,-99.99,,,-99.99,meteohub,2013-03-08 08:27:00,
2013-03-08 03:32:00,29.5,28.0,29.88,NW,315,1.0,3.0,94,-99.99,,,-99.99,meteohub,2013-03-08 08:32:00,
2013-03-08 03:37:00,29.5,28.0,29.88,NW,315,1.0,4.0,94,-99.99,,,-99.99,meteohub,2013-03-08 08:37:00,
2013-03-08 03:42:00,29.5,28.0,29.88,NW,315,1.0,4.0,94,-99.99,,,-99.99,meteohub,2013-03-08 08:42:00,
2013-03-08 03:47:00,29.5,28.0,29.88,NW,315,2.0,4.0,94,-99.99,,,-99.99,meteohub,2013-03-08 08:47:00,
2013-03-08 03:52:00,29.5,28.0,29.91,NW,315,2.0,3.0,94,-99.99,,,-99.99,meteohub,2013-03-08 08:52:00,
2013-03-08 03:57:00,29.5,28.0,29.91,NW,315,2.0,3.0,94,-99.99,,,-99.99,meteohub,2013-03-08 08:57:00,
2013-03-08 04:02:00,29.5,28.0,29.91,NW,315,0.0,3.0,94,-99.99,,,-99.99,meteohub,2013-03-08 09:02:00,
2013-03-08 04:07:00,29.5,28.0,29.88,NW,315,3.0,3.0,94,-99.99,,,-99.99,meteohub,2013-03-08 09:07:00,
2013-03-08 04:12:00,29.5,28.0,29.88,NW,315,0.0,3.0,94,-99.99,,,-99.99,meteohub,2013-03-08 09:12:00,
2013-03-08 04:17:00,29.5,28.0,29.88,NW,315,1.0,4.0,94,-99.99,,,-99.99,meteohub,2013-03-08 09:17:00,
2013-03-08 04:22:00,29.5,28.0,29.88,NW,315,2.0,4.0,94,-99.99,,,-99.99,meteohub,2013-03-08 09:22:00,
2013-03-08 04:27:00,29.5,28.0,29.88,NW,315,0.0,3.0,94,-99.99,,,-99.99,meteohub,2013-03-08 09:27:00,
2013-03-08 04:32:00,29.5,28.0,29.88,NW,315,3.0,3.0,94,-99.99,,,-99.99,meteohub,2013-03-08 09:32:00,
2013-03-08 04:37:00,29.5,28.0,29.85,NW,315,1.0,3.0,94,-99.99,,,-99.99,meteohub,2013-03-08 09:37:00,
2013-03-08 04:42:00,29.5,28.0,29.85,NW,315,1.0,4.0,94,-99.99,,,-99.99,meteohub,2013-03-08 09:42:00,
2013-03-08 04:47:00,29.5,28.0,29.85,NW,315,2.0,4.0,94,-99.99,,,-99.99,meteohub,2013-03-08 09:47:00,
2013-03-08 04:52:00,29.5,28.0,29.91,NW,315,2.0,4.0,94,-99.99,,,-99.99,meteohub,2013-03-08 09:52:00,
2013-03-08 04:57:00,29.5,28.0,29.91,NW,315,2.0,4.0,94,-99.99,,,-99.99,meteohub,2013-03-08 09:57:00,
2013-03-08 05:02:00,29.5,28.0,29.91,NW,315,3.0,4.0,94,-99.99,,,-99.99,meteohub,2013-03-08 10:02:00,
2013-03-08 05:07:00,29.5,28.0,29.88,NW,315,0.0,4.0,94,-99.99,,,-99.99,meteohub,2013-03-08 10:07:00,
2013-03-08 05:12:00,29.5,28.0,29.88,NW,315,0.0,4.0,94,-99.99,,,-99.99,meteohub,2013-03-08 10:12:00,
2013-03-08 05:17:00,29.5,28.0,29.88,NW,315,3.0,4.0,94,-99.99,,,-99.99,meteohub,2013-03-08 10:17:00,
2013-03-08 05:22:00,29.5,28.0,29.88,NW,315,0.0,3.0,94,-99.99,,,-99.99,meteohub,2013-03-08 10:22:00,
2013-03-08 05:27:00,29.5,28.0,29.88,NW,315,3.0,3.0,94,-99.99,,,-99.99,meteohub,2013-03-08 10:27:00,
2013-03-08 05:33:00,29.5,28.0,29.88,NW,315,1.0,3.0,94,-99.99,,,-99.99,meteohub,2013-03-08 10:33:00,
2013-03-08 05:38:00,29.5,28.0,29.88,NW,315,1.0,3.0,94,-99.99,,,-99.99,meteohub,2013-03-08 10:38:00,
2013-03-08 05:43:00,29.5,28.0,29.88,NW,315,1.0,3.0,94,-99.99,,,-99.99,meteohub,2013-03-08 10:43:00,
2013-03-08 05:48:00,29.5,28.0,29.88,NW,315,1.0,4.0,94,-99.99,,,-99.99,meteohub,2013-03-08 10:48:00,
2013-03-08 05:53:00,29.5,28.0,29.88,NW,315,0.0,4.0,94,-99.99,,,-99.99,meteohub,2013-03-08 10:53:00,
2013-03-08 05:58:00,29.5,28.0,29.88,NW,315,0.0,4.0,94,-99.99,,,-99.99,meteohub,2013-03-08 10:58:00,
2013-03-08 06:03:00,29.5,28.0,29.88,NW,315,3.0,4.0,94,-99.99,,,-99.99,meteohub,2013-03-08 11:03:00,
2013-03-08 06:08:00,29.5,28.0,29.88,NW,315,0.0,3.0,94,-99.99,,,-99.99,meteohub,2013-03-08 11:08:00,
2013-03-08 06:13:00,29.5,28.0,29.88,NW,315,0.0,3.0,94,-99.99,,,-99.99,meteohub,2013-03-08 11:13:00,
2013-03-08 06:19:00,29.5,28.0,29.88,NW,315,1.0,3.0,94,-99.99,,,-99.99,meteohub,2013-03-08 11:19:00,
2013-03-08 06:24:00,29.5,28.0,29.88,NW,315,0.0,3.0,94,-99.99,,,-99.99,meteohub,2013-03-08 11:24:00,
2013-03-08 06:29:00,29.5,28.0,29.88,NW,315,0.0,3.0,94,-99.99,,,-99.99,meteohub,2013-03-08 11:29:00,
2013-03-08 06:34:00,29.5,28.0,29.88,NW,315,1.0,4.0,94,-99.99,,,-99.99,meteohub,2013-03-08 11:34:00,
2013-03-08 06:39:00,29.5,28.0,29.88,NW,315,0.0,4.0,94,-99.99,,,-99.99,meteohub,2013-03-08 11:39:00,
2013-03-08 06:44:00,29.5,28.0,29.88,NW,315,0.0,3.0,94,-99.99,,,-99.99,meteohub,2013-03-08 11:44:00,
2013-03-08 06:49:00,29.7,28.2,29.88,NW,315,0.0,3.0,94,-99.99,,,-99.99,meteohub,2013-03-08 11:49:00,
2013-03-08 06:54:00,29.7,28.2,29.88,NW,315,2.0,2.0,94,-99.99,,,-99.99,meteohub,2013-03-08 11:54:00,
2013-03-08 06:59:00,29.7,28.2,29.88,NW,315,0.0,4.0,94,-99.99,,,-99.99,meteohub,2013-03-08 11:59:00,
2013-03-08 07:04:00,29.7,28.2,29.88,NW,315,3.0,4.0,94,-99.99,,,-99.99,meteohub,2013-03-08 12:04:00,
2013-03-08 07:10:00,29.7,28.2,29.88,NW,315,0.0,5.0,94,-99.99,,,-99.99,meteohub,2013-03-08 12:10:00,
2013-03-08 07:15:00,29.7,28.2,29.88,NW,315,3.0,5.0,94,-99.99,,,-99.99,meteohub,2013-03-08 12:15:00,
2013-03-08 07:20:00,29.8,28.6,29.88,NW,315,2.0,5.0,95,-99.99,,,-99.99,meteohub,2013-03-08 12:20:00,
2013-03-08 07:25:00,29.8,28.6,29.88,NW,315,3.0,5.0,95,-99.99,,,-99.99,meteohub,2013-03-08 12:25:00,
2013-03-08 07:30:00,29.8,28.6,29.88,NW,315,0.0,5.0,95,-99.99,,,-99.99,meteohub,2013-03-08 12:30:00,
2013-03-08 07:35:00,29.8,28.6,29.88,NW,315,1.0,5.0,95,-99.99,,,-99.99,meteohub,2013-03-08 12:35:00,
2013-03-08 07:40:00,29.8,28.6,29.88,NW,315,0.0,5.0,95,-99.99,,,-99.99,meteohub,2013-03-08 12:40:00,
2013-03-08 07:45:00,30.0,28.6,29.88,NW,315,1.0,4.0,94,-99.99,,,-99.99,meteohub,2013-03-08 12:45:00,
2013-03-08 07:50:00,30.0,28.6,29.88,NW,315,0.0,3.0,94,-99.99,,,-99.99,meteohub,2013-03-08 12:50:00,
2013-03-08 07:55:00,30.0,28.6,29.88,NW,315,1.0,3.0,94,-99.99,,,-99.99,meteohub,2013-03-08 12:55:00,
2013-03-08 08:00:00,30.2,28.8,29.88,NW,315,1.0,3.0,94,-99.99,,,-99.99,meteohub,2013-03-08 13:00:00,
2013-03-08 08:05:00,30.2,28.8,29.88,NW,315,0.0,4.0,94,-99.99,,,-99.99,meteohub,2013-03-08 13:05:00,
2013-03-08 08:11:00,30.2,28.8,29.88,NW,315,1.0,4.0,94,-99.99,,,-99.99,meteohub,2013-03-08 13:11:00,
2013-03-08 08:16:00,30.2,28.8,29.88,NW,315,2.0,4.0,94,-99.99,,,-99.99,meteohub,2013-03-08 13:16:00,
2013-03-08 08:21:00,30.4,28.6,29.91,NW,315,2.0,3.0,93,-99.99,,,-99.99,meteohub,2013-03-08 13:21:00,
2013-03-08 08:36:00,30.7,28.9,29.91,NW,315,1.0,6.0,93,-99.99,,,-99.99,meteohub,2013-03-08 13:36:00,
2013-03-08 08:41:00,30.7,28.8,29.91,NW,315,0.0,6.0,92,-99.99,,,-99.99,meteohub,2013-03-08 13:41:00,
2013-03-08 08:46:00,30.6,28.6,29.91,NW,315,0.0,4.0,92,-99.99,,,-99.99,meteohub,2013-03-08 13:46:00,
2013-03-08 08:51:00,30.6,28.2,29.91,NW,315,1.0,4.0,91,-99.99,,,-99.99,meteohub,2013-03-08 13:51:00,
2013-03-08 08:56:00,30.6,28.2,29.91,NW,315,2.0,4.0,91,-99.99,,,-99.99,meteohub,2013-03-08 13:56:00,
2013-03-08 09:01:00,30.6,28.2,29.91,NW,315,2.0,3.0,91,-99.99,,,-99.99,meteohub,2013-03-08 14:01:00,
2013-03-08 09:06:00,30.6,28.0,29.91,NW,315,0.0,4.0,90,-99.99,,,-99.99,meteohub,2013-03-08 14:06:00,
2013-03-08 09:11:00,30.6,28.0,29.91,NW,315,3.0,4.0,90,-99.99,,,-99.99,meteohub,2013-03-08 14:11:00,
2013-03-08 09:16:00,30.6,28.0,29.91,NW,315,2.0,4.0,90,-99.99,,,-99.99,meteohub,2013-03-08 14:16:00,
2013-03-08 09:22:00,30.7,28.2,29.91,NW,315,1.0,4.0,90,-99.99,,,-99.99,meteohub,2013-03-08 14:22:00,
2013-03-08 09:27:00,30.9,28.4,29.91,NW,315,2.0,4.0,90,-99.99,,,-99.99,meteohub,2013-03-08 14:27:00,
2013-03-08 09:32:00,31.1,28.6,29.91,NW,315,4.0,4.0,90,-99.99,,,-99.99,meteohub,2013-03-08 14:32:00,
2013-03-08 09:37:00,31.1,28.6,29.91,NW,315,0.0,4.0,90,-99.99,,,-99.99,meteohub,2013-03-08 14:37:00,
2013-03-08 09:42:00,31.1,28.6,29.91,NW,315,2.0,4.0,90,-99.99,,,-99.99,meteohub,2013-03-08 14:42:00,
2013-03-08 09:47:00,31.3,28.8,29.91,NW,315,0.0,4.0,90,-99.99,,,-99.99,meteohub,2013-03-08 14:47:00,
2013-03-08 10:15:00,32.4,28.6,29.94,NW,315,3.0,4.0,86,-99.99,,,-99.99,meteohub,2013-03-08 15:15:00,
2013-03-08 10:34:00,32.4,28.0,29.94,NW,315,1.0,3.0,84,-99.99,,,-99.99,meteohub,2013-03-08 15:34:00,
2013-03-08 10:40:00,32.2,27.7,29.94,NW,315,5.0,5.0,83,-99.99,,,-99.99,meteohub,2013-03-08 15:40:00,
2013-03-08 12:55:00,33.8,29.1,29.94,NW,315,0.0,2.0,83,-99.99,,,-99.99,meteohub,2013-03-08 17:55:00,
2013-03-08 13:00:00,34.0,29.3,29.94,NW,315,0.0,2.0,83,-99.99,,,-99.99,meteohub,2013-03-08 18:00:00,
2013-03-08 13:05:00,34.3,29.7,29.94,NW,315,0.0,2.0,83,-99.99,,,-99.99,meteohub,2013-03-08 18:05:00,
2013-03-08 13:10:00,34.7,29.8,29.94,NW,315,1.0,2.0,82,-99.99,,,-99.99,meteohub,2013-03-08 18:10:00,
2013-03-08 13:15:00,34.7,29.8,29.94,NW,315,1.0,2.0,82,-99.99,,,-99.99,meteohub,2013-03-08 18:15:00,
2013-03-08 13:20:00,35.1,29.5,29.94,NW,315,5.0,5.0,80,-99.99,,,-99.99,meteohub,2013-03-08 18:20:00,
2013-03-08 13:25:00,35.2,29.1,29.94,NW,315,2.0,5.0,78,-99.99,,,-99.99,meteohub,2013-03-08 18:25:00,
2013-03-08 13:31:00,35.6,27.5,29.94,NW,315,2.0,5.0,72,-99.99,,,-99.99,meteohub,2013-03-08 18:31:00,
2013-03-08 13:36:00,36.7,28.2,29.94,NW,315,1.0,5.0,71,-99.99,,,-99.99,meteohub,2013-03-08 18:36:00,
2013-03-08 13:41:00,36.7,26.4,29.94,NW,315,1.0,3.0,66,-99.99,,,-99.99,meteohub,2013-03-08 18:41:00,
2013-03-08 13:46:00,36.7,24.1,29.94,NNW,338,6.0,6.0,60,-99.99,,,-99.99,meteohub,2013-03-08 18:46:00,
2013-03-08 13:51:00,37.0,25.3,29.94,NNW,338,3.0,6.0,62,-99.99,,,-99.99,meteohub,2013-03-08 18:51:00,
2013-03-08 13:56:00,37.4,24.4,29.94,NNW,338,1.0,6.0,59,-99.99,,,-99.99,meteohub,2013-03-08 18:56:00,
2013-03-08 14:01:00,37.9,24.1,29.94,NNW,338,1.0,6.0,57,-99.99,,,-99.99,meteohub,2013-03-08 19:01:00,
2013-03-08 14:06:00,38.5,23.7,29.91,NNW,338,2.0,4.0,55,-99.99,,,-99.99,meteohub,2013-03-08 19:06:00,
2013-03-08 14:11:00,39.2,25.3,29.91,NNW,338,2.0,4.0,57,-99.99,,,-99.99,meteohub,2013-03-08 19:11:00,
2013-03-08 14:16:00,40.3,25.5,29.91,NNW,338,1.0,3.0,55,-99.99,,,-99.99,meteohub,2013-03-08 19:16:00,
2013-03-08 14:22:00,41.2,27.1,29.94,NNW,338,2.0,3.0,57,-99.99,,,-99.99,meteohub,2013-03-08 19:22:00,
2013-03-08 14:27:00,41.7,25.5,29.94,NNW,338,1.0,3.0,52,-99.99,,,-99.99,meteohub,2013-03-08 19:27:00,
2013-03-08 14:32:00,41.5,24.3,29.94,NNW,338,3.0,3.0,50,-99.99,,,-99.99,meteohub,2013-03-08 19:32:00,
2013-03-08 14:37:00,41.9,24.3,29.94,NNW,338,3.0,3.0,49,-99.99,,,-99.99,meteohub,2013-03-08 19:37:00,
2013-03-08 14:42:00,42.1,24.8,29.94,NNW,338,3.0,3.0,50,-99.99,,,-99.99,meteohub,2013-03-08 19:42:00,
2013-03-08 14:47:00,42.1,24.3,29.94,NNW,338,3.0,3.0,49,-99.99,,,-99.99,meteohub,2013-03-08 19:47:00,
2013-03-08 14:52:00,41.9,23.7,29.94,NNW,338,2.0,3.0,48,-99.99,,,-99.99,meteohub,2013-03-08 19:52:00,
2013-03-08 14:57:00,41.7,24.1,29.94,NNW,338,1.0,3.0,49,-99.99,,,-99.99,meteohub,2013-03-08 19:57:00,
2013-03-08 15:02:00,41.7,24.1,29.94,NNW,338,0.0,3.0,49,-99.99,,,-99.99,meteohub,2013-03-08 20:02:00,
2013-03-08 15:07:00,41.2,23.0,29.97,NNW,338,2.0,2.0,48,-99.99,,,-99.99,meteohub,2013-03-08 20:07:00,
2013-03-08 15:12:00,41.0,23.4,29.97,NNW,338,2.0,2.0,49,-99.99,,,-99.99,meteohub,2013-03-08 20:12:00,
2013-03-08 15:17:00,40.8,23.2,29.97,NNW,338,2.0,2.0,49,-99.99,,,-99.99,meteohub,2013-03-08 20:17:00,
2013-03-08 15:22:00,40.8,23.2,29.97,NW,315,0.0,2.0,49,-99.99,,,-99.99,meteohub,2013-03-08 20:22:00,
2013-03-08 15:27:00,41.0,22.8,29.97,East,90,2.0,2.0,48,-99.99,,,-99.99,meteohub,2013-03-08 20:27:00,
2013-03-08 15:32:00,41.0,23.4,29.97,East,90,2.0,2.0,49,-99.99,,,-99.99,meteohub,2013-03-08 20:32:00,
2013-03-08 15:37:00,41.0,21.9,29.97,East,90,2.0,2.0,46,-99.99,,,-99.99,meteohub,2013-03-08 20:37:00,
2013-03-08 15:42:00,41.0,22.8,29.97,WNW,292,0.0,2.0,48,-99.99,,,-99.99,meteohub,2013-03-08 20:42:00,
2013-03-08 15:47:00,41.2,23.0,29.97,WNW,292,1.0,2.0,48,-99.99,,,-99.99,meteohub,2013-03-08 20:47:00,
2013-03-08 15:52:00,41.2,22.5,29.97,WNW,292,1.0,2.0,47,-99.99,,,-99.99,meteohub,2013-03-08 20:52:00,
2013-03-08 15:57:00,41.0,23.4,29.97,WNW,292,1.0,1.0,49,-99.99,,,-99.99,meteohub,2013-03-08 20:57:00,
2013-03-08 16:02:00,41.0,23.4,29.97,WNW,292,1.0,1.0,49,-99.99,,,-99.99,meteohub,2013-03-08 21:02:00,
2013-03-08 16:07:00,40.6,23.0,29.97,North,-999,-999.0,1.0,49,-99.99,,,-99.99,meteohub,2013-03-08 21:07:00,
2013-03-08 16:12:00,40.6,23.0,29.97,WSW,248,0.0,1.0,49,-99.99,,,-99.99,meteohub,2013-03-08 21:12:00,
2013-03-08 16:17:00,41.2,24.1,29.97,WSW,248,0.0,1.0,50,-99.99,,,-99.99,meteohub,2013-03-08 21:17:00,
2013-03-08 16:22:00,41.2,24.1,30.00,SW,225,2.0,2.0,50,-99.99,,,-99.99,meteohub,2013-03-08 21:22:00,
2013-03-08 16:27:00,40.8,23.7,30.00,SW,225,0.0,2.0,50,-99.99,,,-99.99,meteohub,2013-03-08 21:27:00,
2013-03-08 16:32:00,40.3,23.2,30.00,SSW,202,0.0,2.0,50,-99.99,,,-99.99,meteohub,2013-03-08 21:32:00,
2013-03-08 16:37:00,39.9,23.4,29.97,WSW,248,0.0,2.0,51,-99.99,,,-99.99,meteohub,2013-03-08 21:37:00,
2013-03-08 16:42:00,39.4,22.3,29.97,WNW,292,0.0,4.0,50,-99.99,,,-99.99,meteohub,2013-03-08 21:42:00,
2013-03-08 16:48:00,39.2,22.6,29.97,WNW,292,0.0,4.0,51,-99.99,,,-99.99,meteohub,2013-03-08 21:48:00,
2013-03-08 16:53:00,38.8,22.3,30.00,WSW,248,0.0,4.0,51,-99.99,,,-99.99,meteohub,2013-03-08 21:53:00,
2013-03-08 16:58:00,38.7,22.6,30.00,WSW,248,0.0,3.0,52,-99.99,,,-99.99,meteohub,2013-03-08 21:58:00,
2013-03-08 17:03:00,38.3,21.7,30.00,WNW,292,3.0,3.0,51,-99.99,,,-99.99,meteohub,2013-03-08 22:03:00,
2013-03-08 17:08:00,38.1,22.1,30.00,NW,315,0.0,3.0,52,-99.99,,,-99.99,meteohub,2013-03-08 22:08:00,
2013-03-08 17:13:00,37.6,22.1,30.00,NW,315,0.0,3.0,53,-99.99,,,-99.99,meteohub,2013-03-08 22:13:00,
2013-03-08 17:18:00,36.9,22.3,30.00,NW,315,0.0,3.0,55,-99.99,,,-99.99,meteohub,2013-03-08 22:18:00,
2013-03-08 17:23:00,36.3,22.6,30.00,NW,315,0.0,1.0,57,-99.99,,,-99.99,meteohub,2013-03-08 22:23:00,
2013-03-08 17:28:00,36.0,22.3,30.00,NW,315,0.0,0.0,57,-99.99,,,-99.99,meteohub,2013-03-08 22:28:00,
2013-03-08 17:34:00,35.8,22.8,30.00,NW,315,0.0,1.0,59,-99.99,,,-99.99,meteohub,2013-03-08 22:34:00,
2013-03-08 17:39:00,35.4,23.4,30.00,NW,315,0.0,1.0,61,-99.99,,,-99.99,meteohub,2013-03-08 22:39:00,
2013-03-08 17:44:00,35.1,23.4,30.00,NW,315,0.0,1.0,62,-99.99,,,-99.99,meteohub,2013-03-08 22:44:00,
2013-03-08 17:49:00,34.9,23.2,30.03,NW,315,0.0,0.0,62,-99.99,,,-99.99,meteohub,2013-03-08 22:49:00,
2013-03-08 17:54:00,34.5,23.7,30.03,NW,315,0.0,0.0,64,-99.99,,,-99.99,meteohub,2013-03-08 22:54:00,
2013-03-08 17:59:00,34.3,23.0,30.03,NW,315,0.0,0.0,63,-99.99,,,-99.99,meteohub,2013-03-08 22:59:00,
2013-03-08 18:04:00,34.3,23.9,30.03,NW,315,0.0,0.0,65,-99.99,,,-99.99,meteohub,2013-03-08 23:04:00,
2013-03-08 18:10:00,34.7,24.3,30.03,NW,315,2.0,0.0,65,-99.99,,,-99.99,meteohub,2013-03-08 23:10:00,
2013-03-08 18:15:00,34.7,24.3,30.03,NW,315,0.0,2.0,65,-99.99,,,-99.99,meteohub,2013-03-08 23:15:00,
2013-03-08 18:20:00,34.5,24.4,30.03,NW,315,0.0,2.0,66,-99.99,,,-99.99,meteohub,2013-03-08 23:20:00,
2013-03-08 18:25:00,34.3,24.3,30.03,NW,315,0.0,2.0,66,-99.99,,,-99.99,meteohub,2013-03-08 23:25:00,
2013-03-08 18:30:00,34.2,24.4,30.03,NW,315,0.0,1.0,67,-99.99,,,-99.99,meteohub,2013-03-08 23:30:00,
2013-03-08 18:35:00,34.0,24.6,30.06,NW,315,0.0,0.0,68,-99.99,,,-99.99,meteohub,2013-03-08 23:35:00,
2013-03-08 18:40:00,34.3,25.3,30.06,NW,315,0.0,2.0,69,-99.99,,,-99.99,meteohub,2013-03-08 23:40:00,
2013-03-08 18:45:00,34.3,25.3,30.06,NW,315,0.0,2.0,69,-99.99,,,-99.99,meteohub,2013-03-08 23:45:00,
2013-03-08 18:50:00,34.3,25.5,30.06,WNW,292,0.0,2.0,70,-99.99,,,-99.99,meteohub,2013-03-08 23:50:00,
2013-03-08 18:55:00,34.3,25.5,30.06,WNW,292,2.0,2.0,70,-99.99,,,-99.99,meteohub,2013-03-08 23:55:00,
2013-03-08 19:01:00,34.5,25.7,30.06,WNW,292,0.0,2.0,70,-99.99,,,-99.99,meteohub,2013-03-09 00:01:00,
2013-03-08 19:06:00,34.3,25.5,30.06,WNW,292,0.0,2.0,70,-99.99,,,-99.99,meteohub,2013-03-09 00:06:00,
2013-03-08 19:11:00,34.3,25.9,30.06,WNW,292,0.0,2.0,71,-99.99,,,-99.99,meteohub,2013-03-09 00:11:00,
2013-03-08 19:16:00,34.3,25.9,30.06,WNW,292,0.0,1.0,71,-99.99,,,-99.99,meteohub,2013-03-09 00:16:00,
2013-03-08 19:21:00,34.2,26.1,30.06,WNW,292,0.0,1.0,72,-99.99,,,-99.99,meteohub,2013-03-09 00:21:00,
2013-03-08 19:26:00,34.2,25.7,30.06,WNW,292,0.0,1.0,71,-99.99,,,-99.99,meteohub,2013-03-09 00:26:00,
2013-03-08 19:31:00,34.2,26.1,30.06,WNW,292,0.0,1.0,72,-99.99,,,-99.99,meteohub,2013-03-09 00:31:00,
2013-03-08 19:36:00,34.0,25.5,30.06,WNW,292,0.0,3.0,71,-99.99,,,-99.99,meteohub,2013-03-09 00:36:00,
2013-03-08 19:42:00,34.0,25.5,30.06,WNW,292,0.0,3.0,71,-99.99,,,-99.99,meteohub,2013-03-09 00:42:00,
2013-03-08 19:47:00,33.8,25.3,30.06,NW,315,0.0,3.0,71,-99.99,,,-99.99,meteohub,2013-03-09 00:47:00,
2013-03-08 19:52:00,33.6,25.0,30.06,West,270,4.0,4.0,70,-99.99,,,-99.99,meteohub,2013-03-09 00:52:00,
2013-03-08 19:57:00,33.6,25.0,30.06,WSW,248,0.0,4.0,70,-99.99,,,-99.99,meteohub,2013-03-09 00:57:00,
2013-03-08 20:02:00,33.3,24.6,30.06,WSW,248,2.0,4.0,70,-99.99,,,-99.99,meteohub,2013-03-09 01:02:00,
2013-03-08 20:07:00,33.1,24.4,30.06,WSW,248,0.0,4.0,70,-99.99,,,-99.99,meteohub,2013-03-09 01:07:00,
2013-03-08 20:12:00,33.1,24.4,30.06,WSW,248,0.0,2.0,70,-99.99,,,-99.99,meteohub,2013-03-09 01:12:00,
2013-03-08 20:17:00,32.9,24.3,30.06,WSW,248,2.0,2.0,70,-99.99,,,-99.99,meteohub,2013-03-09 01:17:00,
2013-03-08 20:22:00,32.7,24.1,30.06,WSW,248,0.0,2.0,70,-99.99,,,-99.99,meteohub,2013-03-09 01:22:00,
2013-03-08 20:27:00,32.5,23.9,30.06,WSW,248,0.0,2.0,70,-99.99,,,-99.99,meteohub,2013-03-09 01:27:00,
2013-03-08 20:32:00,32.4,23.7,30.06,WSW,248,1.0,2.0,70,-99.99,,,-99.99,meteohub,2013-03-09 01:32:00,
2013-03-08 20:37:00,33.1,23.7,30.06,NNW,338,2.0,4.0,68,-99.99,,,-99.99,meteohub,2013-03-09 01:37:00,
2013-03-08 20:42:00,32.9,23.5,30.06,NW,315,2.0,6.0,68,-99.99,,,-99.99,meteohub,2013-03-09 01:42:00,
2013-03-08 20:48:00,32.9,23.2,30.06,WNW,292,0.0,6.0,67,-99.99,,,-99.99,meteohub,2013-03-09 01:48:00,
2013-03-08 20:53:00,32.5,22.5,30.06,WNW,292,0.0,6.0,66,-99.99,,,-99.99,meteohub,2013-03-09 01:53:00,
2013-03-08 21:00:00,31.8,21.7,30.06,WNW,292,0.0,2.0,66,-99.99,,,-99.99,meteohub,2013-03-09 02:00:00,
2013-03-08 21:05:00,31.5,21.4,30.06,WNW,292,0.0,2.0,66,-99.99,,,-99.99,meteohub,2013-03-09 02:05:00,
2013-03-08 21:10:00,31.1,21.0,30.06,WNW,292,0.0,2.0,66,-99.99,,,-99.99,meteohub,2013-03-09 02:10:00,
2013-03-08 21:15:00,31.1,21.4,30.06,West,270,0.0,2.0,67,-99.99,,,-99.99,meteohub,2013-03-09 02:15:00,
2013-03-08 21:20:00,31.1,21.4,30.06,West,270,0.0,2.0,67,-99.99,,,-99.99,meteohub,2013-03-09 02:20:00,
2013-03-08 21:25:00,30.6,20.7,30.06,West,270,0.0,2.0,66,-99.99,,,-99.99,meteohub,2013-03-09 02:25:00,
2013-03-08 21:31:00,30.7,21.0,30.06,West,270,1.0,3.0,67,-99.99,,,-99.99,meteohub,2013-03-09 02:31:00,
2013-03-08 21:36:00,31.3,21.2,30.09,West,270,0.0,3.0,66,-99.99,,,-99.99,meteohub,2013-03-09 02:36:00,
2013-03-08 21:41:00,31.6,21.2,30.09,WSW,248,0.0,3.0,65,-99.99,,,-99.99,meteohub,2013-03-09 02:41:00,
2013-03-08 21:53:00,31.1,19.9,30.06,WNW,292,0.0,3.0,63,-99.99,,,-99.99,meteohub,2013-03-09 02:53:00,
2013-03-08 21:58:00,31.1,19.9,30.06,West,270,2.0,3.0,63,-99.99,,,-99.99,meteohub,2013-03-09 02:58:00,
2013-03-08 22:03:00,30.9,19.4,30.06,West,270,0.0,2.0,62,-99.99,,,-99.99,meteohub,2013-03-09 03:03:00,
2013-03-08 22:08:00,30.6,19.0,30.09,West,270,0.0,2.0,62,-99.99,,,-99.99,meteohub,2013-03-09 03:08:00,
2013-03-08 22:13:00,30.6,19.0,30.09,WNW,292,0.0,2.0,62,-99.99,,,-99.99,meteohub,2013-03-09 03:13:00,
2013-03-08 22:18:00,30.4,18.9,30.09,West,270,0.0,2.0,62,-99.99,,,-99.99,meteohub,2013-03-09 03:18:00,
2013-03-08 22:23:00,30.2,18.9,30.09,West,270,0.0,3.0,62,-99.99,,,-99.99,meteohub,2013-03-09 03:23:00,
2013-03-08 22:28:00,29.7,18.3,30.09,West,270,2.0,3.0,62,-99.99,,,-99.99,meteohub,2013-03-09 03:28:00,
2013-03-08 22:33:00,29.8,18.9,30.09,West,270,0.0,3.0,63,-99.99,,,-99.99,meteohub,2013-03-09 03:33:00,
2013-03-08 22:39:00,30.2,19.2,30.09,West,270,0.0,4.0,63,-99.99,,,-99.99,meteohub,2013-03-09 03:39:00,
2013-03-08 22:44:00,30.2,18.9,30.09,WNW,292,0.0,4.0,62,-99.99,,,-99.99,meteohub,2013-03-09 03:44:00,
2013-03-08 22:49:00,30.0,18.1,30.09,WNW,292,0.0,4.0,61,-99.99,,,-99.99,meteohub,2013-03-09 03:49:00,
2013-03-08 22:54:00,29.7,18.0,30.09,WNW,292,1.0,4.0,61,-99.99,,,-99.99,meteohub,2013-03-09 03:54:00,
2013-03-08 22:59:00,29.5,18.1,30.09,West,270,0.0,4.0,62,-99.99,,,-99.99,meteohub,2013-03-09 03:59:00,
2013-03-08 23:04:00,29.5,17.8,30.09,West,270,2.0,2.0,61,-99.99,,,-99.99,meteohub,2013-03-09 04:04:00,
2013-03-08 23:09:00,29.8,18.5,30.09,West,270,1.0,2.0,62,-99.99,,,-99.99,meteohub,2013-03-09 04:09:00,
2013-03-08 23:14:00,30.2,18.3,30.09,West,270,2.0,2.0,61,-99.99,,,-99.99,meteohub,2013-03-09 04:14:00,
2013-03-08 23:19:00,30.6,18.0,30.09,WNW,292,1.0,2.0,59,-99.99,,,-99.99,meteohub,2013-03-09 04:19:00,
2013-03-08 23:24:00,30.9,18.0,30.09,WNW,292,2.0,3.0,58,-99.99,,,-99.99,meteohub,2013-03-09 04:24:00,
2013-03-08 23:29:00,30.4,17.1,30.09,West,270,0.0,3.0,57,-99.99,,,-99.99,meteohub,2013-03-09 04:29:00,
2013-03-08 23:34:00,30.4,17.1,30.09,West,270,1.0,3.0,57,-99.99,,,-99.99,meteohub,2013-03-09 04:34:00,
2013-03-08 23:40:00,30.4,17.1,30.09,West,270,0.0,3.0,57,-99.99,,,-99.99,meteohub,2013-03-09 04:40:00,
2013-03-08 23:45:00,30.2,16.9,30.09,West,270,1.0,2.0,57,-99.99,,,-99.99,meteohub,2013-03-09 04:45:00,
2013-03-08 23:50:00,30.4,16.5,30.09,West,270,0.0,3.0,56,-99.99,,,-99.99,meteohub,2013-03-09 04:50:00,
2013-03-08 23:55:00,29.8,16.2,30.09,NNW,338,0.0,3.0,56,-99.99,,,-99.99,meteohub,2013-03-09 04:55:00,